Time,TemperatureF,DewpointF,PressureIn,WindDirection,WindDirectionDegrees,WindSpeedMPH,WindSpeedGustMPH,Humidity,HourlyPrecipIn,Conditions,Clouds,dailyrainin,SoftwareType,DateUTC
2013-01-08 00:02:00,18.0,17.0,-100.00,SE,145,0.0,2.0,98,-99.99,,,-99.99,,2013-01-08 06:02:00,
2013-01-08 00:12:00,18.0,17.0,-100.00,SE,145,0.0,2.0,98,-99.99,,,-99.99,,2013-01-08 06:12:00,
2013-01-08 00:22:00,18.0,17.0,-100.00,SE,145,0.0,2.0,98,-99.99,,,-99.99,,2013-01-08 06:22:00,
2013-01-08 00:32:00,18.0,17.0,-100.00,SE,145,0.0,2.0,98,-99.99,,,-99.99,,2013-01-08 06:32:00,
2013-01-08 01:31:00,14.0,13.0,-100.00,North,5,0.0,0.0,98,-99.99,,,-99.99,,2013-01-08 07:31:00,
2013-01-08 01:52:00,14.0,13.0,-100.00,North,5,0.0,0.0,98,-99.99,,,-99.99,,2013-01-08 07:52:00,
2013-01-08 02:02:00,14.0,13.0,-100.00,North,5,0.0,0.0,98,-99.99,,,-99.99,,2013-01-08 08:02:00,
2013-01-08 02:12:00,14.0,13.0,-100.00,North,5,0.0,0.0,98,-99.99,,,-99.99,,2013-01-08 08:12:00,
2013-01-08 02:22:00,14.0,13.0,-100.00,North,5,0.0,0.0,98,-99.99,,,-99.99,,2013-01-08 08:22:00,
2013-01-08 03:52:00,12.0,11.0,-100.00,NNE,15,1.0,2.0,98,-99.99,,,-99.99,,2013-01-08 09:52:00,
2013-01-08 04:02:00,12.0,11.0,-100.00,NNE,15,1.0,2.0,98,-99.99,,,-99.99,,2013-01-08 10:02:00,
2013-01-08 04:12:00,12.0,11.0,-100.00,NNE,15,1.0,2.0,98,-99.99,,,-99.99,,2013-01-08 10:12:00,
2013-01-08 04:22:00,12.0,11.0,-100.00,NNE,15,1.0,2.0,98,-99.99,,,-99.99,,2013-01-08 10:22:00,
2013-01-08 04:32:00,12.0,11.0,-100.00,NNE,15,1.0,2.0,98,-99.99,,,-99.99,,2013-01-08 10:32:00,
2013-01-08 05:31:00,10.0,10.0,-100.00,NNE,20,1.0,2.0,98,-99.99,,,-99.99,,2013-01-08 11:31:00,
2013-01-08 05:53:00,10.0,10.0,-100.00,NNE,20,1.0,2.0,98,-99.99,,,-99.99,,2013-01-08 11:53:00,
2013-01-08 06:03:00,10.0,10.0,-100.00,NNE,20,1.0,2.0,98,-99.99,,,-99.99,,2013-01-08 12:03:00,
2013-01-08 06:12:00,10.0,10.0,-100.00,NNE,20,1.0,2.0,98,-99.99,,,-99.99,,2013-01-08 12:12:00,
2013-01-08 06:22:00,10.0,10.0,-100.00,NNE,20,1.0,2.0,98,-99.99,,,-99.99,,2013-01-08 12:22:00,
2013-01-08 07:32:00,9.0,8.0,-100.00,NW,315,0.0,1.0,97,-99.99,,,-99.99,,2013-01-08 13:32:00,
2013-01-08 07:53:00,9.0,8.0,-100.00,NW,315,0.0,1.0,97,-99.99,,,-99.99,,2013-01-08 13:53:00,
2013-01-08 08:02:00,9.0,8.0,-100.00,NW,315,0.0,1.0,97,-99.99,,,-99.99,,2013-01-08 14:02:00,
2013-01-08 08:12:00,9.0,8.0,-100.00,NW,315,0.0,1.0,97,-99.99,,,-99.99,,2013-01-08 14:12:00,
2013-01-08 08:23:00,9.0,8.0,-100.00,NW,315,0.0,1.0,97,-99.99,,,-99.99,,2013-01-08 14:23:00,
2013-01-08 09:32:00,21.0,20.0,-100.00,ENE,60,1.0,2.0,97,-99.99,,,-99.99,,2013-01-08 15:32:00,
2013-01-08 09:53:00,21.0,20.0,-100.00,ENE,60,1.0,2.0,97,-99.99,,,-99.99,,2013-01-08 15:53:00,
2013-01-08 10:03:00,21.0,20.0,-100.00,ENE,60,1.0,2.0,97,-99.99,,,-99.99,,2013-01-08 16:03:00,
2013-01-08 10:12:00,21.0,20.0,-100.00,ENE,60,1.0,2.0,97,-99.99,,,-99.99,,2013-01-08 16:12:00,
2013-01-08 10:22:00,21.0,20.0,-100.00,ENE,60,1.0,2.0,97,-99.99,,,-99.99,,2013-01-08 16:22:00,
2013-01-08 11:12:00,34.0,29.0,-100.00,East,95,1.0,4.0,83,-99.99,,,-99.99,,2013-01-08 17:12:00,
2013-01-08 11:34:00,34.0,29.0,-100.00,East,95,1.0,4.0,83,-99.99,,,-99.99,,2013-01-08 17:34:00,
2013-01-08 11:43:00,34.0,29.0,-100.00,East,95,1.0,4.0,83,-99.99,,,-99.99,,2013-01-08 17:43:00,
2013-01-08 11:54:00,34.0,29.0,-100.00,East,95,1.0,4.0,83,-99.99,,,-99.99,,2013-01-08 17:54:00,
2013-01-08 12:03:00,34.0,29.0,-100.00,East,95,1.0,4.0,83,-99.99,,,-99.99,,2013-01-08 18:03:00,
2013-01-08 12:30:00,36.0,26.0,-100.00,SE,125,4.0,10.0,66,-99.99,,,-99.99,,2013-01-08 18:30:00,
2013-01-08 12:53:00,36.0,26.0,-100.00,SE,125,4.0,10.0,66,-99.99,,,-99.99,,2013-01-08 18:53:00,
2013-01-08 13:03:00,36.0,26.0,-100.00,SE,125,4.0,10.0,66,-99.99,,,-99.99,,2013-01-08 19:03:00,
2013-01-08 13:12:00,36.0,26.0,-100.00,SE,125,4.0,10.0,66,-99.99,,,-99.99,,2013-01-08 19:12:00,
2013-01-08 13:22:00,36.0,26.0,-100.00,SE,125,4.0,10.0,66,-99.99,,,-99.99,,2013-01-08 19:22:00,
2013-01-08 14:12:00,37.0,26.0,-100.00,SE,125,4.0,11.0,64,-99.99,,,-99.99,,2013-01-08 20:12:00,
2013-01-08 14:23:00,37.0,26.0,-100.00,SE,125,4.0,11.0,64,-99.99,,,-99.99,,2013-01-08 20:23:00,
2013-01-08 14:33:00,37.0,26.0,-100.00,SE,125,4.0,11.0,64,-99.99,,,-99.99,,2013-01-08 20:33:00,
2013-01-08 14:43:00,37.0,26.0,-100.00,SE,125,4.0,11.0,64,-99.99,,,-99.99,,2013-01-08 20:43:00,
2013-01-08 15:13:00,40.0,25.0,-100.00,SE,140,7.0,17.0,56,-99.99,,,-99.99,,2013-01-08 21:13:00,
2013-01-08 15:23:00,40.0,25.0,-100.00,SE,140,7.0,17.0,56,-99.99,,,-99.99,,2013-01-08 21:23:00,
2013-01-08 15:33:00,40.0,25.0,-100.00,SE,140,7.0,17.0,56,-99.99,,,-99.99,,2013-01-08 21:33:00,
2013-01-08 15:43:00,40.0,25.0,-100.00,SE,140,7.0,17.0,56,-99.99,,,-99.99,,2013-01-08 21:43:00,
2013-01-08 16:53:00,37.0,25.0,-100.00,SSE,155,7.0,18.0,61,-99.99,,,-99.99,,2013-01-08 22:53:00,
2013-01-08 17:02:00,37.0,25.0,-100.00,SSE,155,7.0,18.0,61,-99.99,,,-99.99,,2013-01-08 23:02:00,
2013-01-08 17:12:00,37.0,25.0,-100.00,SSE,155,7.0,18.0,61,-99.99,,,-99.99,,2013-01-08 23:12:00,
2013-01-08 17:22:00,37.0,25.0,-100.00,SSE,155,7.0,18.0,61,-99.99,,,-99.99,,2013-01-08 23:22:00,
2013-01-08 17:53:00,34.0,25.0,-100.00,SE,145,7.0,11.0,69,-99.99,,,-99.99,,2013-01-08 23:53:00,
2013-01-08 18:03:00,34.0,25.0,-100.00,SE,145,7.0,11.0,69,-99.99,,,-99.99,,2013-01-09 00:03:00,
2013-01-08 18:12:00,34.0,25.0,-100.00,SE,145,7.0,11.0,69,-99.99,,,-99.99,,2013-01-09 00:12:00,
2013-01-08 18:22:00,34.0,25.0,-100.00,SE,145,7.0,11.0,69,-99.99,,,-99.99,,2013-01-09 00:22:00,
2013-01-08 18:53:00,36.0,28.0,-100.00,South,190,10.0,17.0,71,-99.99,,,-99.99,,2013-01-09 00:53:00,
2013-01-08 19:02:00,36.0,28.0,-100.00,South,190,10.0,17.0,71,-99.99,,,-99.99,,2013-01-09 01:02:00,
2013-01-08 19:12:00,36.0,28.0,-100.00,South,190,10.0,17.0,71,-99.99,,,-99.99,,2013-01-09 01:12:00,
2013-01-08 19:22:00,36.0,28.0,-100.00,South,190,10.0,17.0,71,-99.99,,,-99.99,,2013-01-09 01:22:00,
2013-01-08 19:52:00,36.0,28.0,-100.00,South,175,14.0,21.0,73,-99.99,,,-99.99,,2013-01-09 01:52:00,
2013-01-08 20:02:00,36.0,28.0,-100.00,South,175,14.0,21.0,73,-99.99,,,-99.99,,2013-01-09 02:02:00,
2013-01-08 20:12:00,36.0,28.0,-100.00,South,175,14.0,21.0,73,-99.99,,,-99.99,,2013-01-09 02:12:00,
2013-01-08 20:22:00,36.0,28.0,-100.00,South,175,14.0,21.0,73,-99.99,,,-99.99,,2013-01-09 02:22:00,
2013-01-08 20:53:00,35.0,29.0,-100.00,South,170,10.0,19.0,78,-99.99,,,-99.99,,2013-01-09 02:53:00,
2013-01-08 21:03:00,35.0,29.0,-100.00,South,170,10.0,19.0,78,-99.99,,,-99.99,,2013-01-09 03:03:00,
2013-01-08 21:12:00,35.0,29.0,-100.00,South,170,10.0,19.0,78,-99.99,,,-99.99,,2013-01-09 03:12:00,
2013-01-08 21:22:00,35.0,29.0,-100.00,South,170,10.0,19.0,78,-99.99,,,-99.99,,2013-01-09 03:22:00,
2013-01-08 21:53:00,35.0,30.0,-100.00,South,175,9.0,14.0,80,-99.99,,,-99.99,,2013-01-09 03:53:00,
2013-01-08 22:02:00,35.0,30.0,-100.00,South,175,9.0,14.0,80,-99.99,,,-99.99,,2013-01-09 04:02:00,
2013-01-08 22:12:00,35.0,30.0,-100.00,South,175,9.0,14.0,80,-99.99,,,-99.99,,2013-01-09 04:12:00,
2013-01-08 22:22:00,35.0,30.0,-100.00,South,175,9.0,14.0,80,-99.99,,,-99.99,,2013-01-09 04:22:00,
2013-01-08 22:52:00,36.0,31.0,-100.00,SSW,200,7.0,17.0,80,-99.99,,,-99.99,,2013-01-09 04:52:00,
2013-01-08 23:03:00,36.0,31.0,-100.00,SSW,200,7.0,17.0,80,-99.99,,,-99.99,,2013-01-09 05:03:00,
2013-01-08 23:12:00,36.0,31.0,-100.00,SSW,200,7.0,17.0,80,-99.99,,,-99.99,,2013-01-09 05:12:00,
2013-01-08 23:22:00,36.0,31.0,-100.00,SSW,200,7.0,17.0,80,-99.99,,,-99.99,,2013-01-09 05:22:00,